A/2019 U6

Japanese version
Home page
Updated on November 9, 2019

---------------------------------------------------------------------

* Profile

Discovery Date October 31, 2019
Magnitude 20.5 mag
Discoverer Mt. Lemmon Survey

* Orbital Elements

T 2020 June 19.38820 TT                                 Bell                    
q   0.9225826            (2000.0)            P               Q                  
                   Peri.  329.25479     -0.68571457     +0.05569361             
                   Node   235.88436     -0.34797571     -0.90082843             
e   1.0            Incl.   61.23393     -0.63930309     +0.43058840             
H   14.5                                                                        
From 31 observations 2019 Oct. 31-Nov. 8.                                       

* Finding Charts

* Magnitudes Graph

        H = 14.5  G = 0.15

---------------------------------------------------------------------

The orbital elements are published on M.P.E.C. 2019-V131.
The charts are made with StellaNavigator Ver.10 (AstroArts).
The magnitudes graphs are made with Comet for Windows.

---------------------------------------------------------------------

Copyright(C) Seiichi Yoshida (comet@aerith.net). All rights reserved.